User: anonymous   Login
Location: Contre
(49.7477°N, 2.0963°E)
Time: 21:38:57
(UTC+00:00)
Language:

AO-85 - Orbit

View from above orbital plane
View from above orbital plane
View from above satellite
View from above satellite

Ground track
Ground track

The orbit data is extracted from the following two-line orbital elements,

1 40967U 15058D   24147.93726109  .00005464  00000-0  51777-3 0  9999
2 40967  64.7789  80.6662 0188761 310.4862  47.9923 14.82076512  1845
Epoch (UTC): 26 May 2024 22:29:39
Eccentricity: 0.0188761
inclination: 64.7789°
perigee height: 490 km
apogee height: 755 km
right ascension of ascending node: 80.6662°
argument of perigee: 310.4862°
revolutions per day: 14.82076512
mean anomaly at epoch: 47.9923°
orbit number at epoch: 184

The dashed part of the orbit path shows where the satellite is in the earth's shadow,  

DLR